Terminal Aerodrome Forecast
Issued by NWS Louisville, KY

Home | Current Version | Previous Version | Text Only | Print | Product List | Glossary On
Versions: 1 2 3 4 5 6 7 8 9 10 11 12
000
FTUS43 KLMK 032325
TAFBWG
TAF
KBWG 032325Z 0400/0424 27006KT P6SM SCT050
     FM040800 VRB03KT 4SM BR SCT250
     FM041500 28006KT P6SM BKN250=

USA.gov is the U.S. government's official web portal to all federal, state and local government web resources and services.